Regional Weather Roundup
Issued by NWS Goodland, KS

Home | Current Version | Previous Version | Graphics & Text | Print | Product List | Glossary On
Versions: 1 2 3 4 5 6 7 8 9 10 11 12 13 14 15 16 17 18 19 20 21 22 23 24 25 26 27 28 29 30 31 32 33 34 35 36 37 38 39 40 41 42 43 44 45 46 47 48 49 50
252
ASUS43 KGLD 010259
RWRGLD

GOODLAND FORECAST AREA HOURLY WEATHER ROUNDUP
NATIONAL WEATHER SERVICE GOODLAND KS
900 PM MDT SUN APR 30 2017

...OFFICIAL OBSERVATIONS...

CITY           SKY/WX    TMP DP  RH WIND       PRES   REMARKS
GOODLAND KS    CLOUDY    33  30  88 W7        29.76S
HILL CITY KS   FLURRIES  35  34  96 NW23G37   29.69S
IMPERIAL NEB   CLOUDY    45  22  40 N18       29.76S
MCCOOK NEB     CLOUDY    37  31  78 N18       29.72R
AKRON CO       CLOUDY    40  20  44 N12       29.83R
BURLINGTON CO  NOT AVBL
LIMON CO       PTCLDY    38  26  62 N8        29.86R
$$

...UNOFFICIAL OBSERVATIONS...

CITY           SKY/WX    TMP DP  RH WIND       PRES   REMARKS
LENORA KS        N/A     32  32 100 MISG        N/A
TRENTON NEB      N/A     32  32 100 N5          N/A
KIT CARSON CO    N/A     41  27  56 MISG        N/A
YUMA CO        FAIR      41  27  56 N12       29.81R
$$




USA.gov is the U.S. government's official web portal to all federal, state and local government web resources and services.